{"data":{"norad_id":62448,"intl_designator":"2024-251S","name":"STARLINK-32719","alt_names":[],"object_type":"PAYLOAD","status":"ACTIVE","operator":null,"country":"US","launch_date":"2024-12-29","launch_site_code":"AFWTR","launch_vehicle":null,"mission":null,"orbit_class":"UNKNOWN","rcs_meters":null,"size_class":null,"mass_kg":null,"dimensions":null,"purposes":["comms"],"wikipedia_slug":null,"has_3d_model":false,"image_url":null,"decayed_at":null,"tle_current":{"epoch":"2026-05-24T22:11:58.837920Z","epoch_age_seconds":85539,"freshness":"FRESH","line1":"1 62448U 24251S   26144.92498655  .00020124  00000+0  68934-3 0  9994","line2":"2 62448  53.1608 341.5280 0000835 111.1840 248.9251 15.30218412 79446","mean_motion":15.30218412,"eccentricity":8.35e-5,"inclination_deg":53.1608,"raan_deg":341.528,"arg_perigee_deg":111.184,"mean_anomaly_deg":248.9251,"bstar":0.00068934,"rev_number":7944,"period_min":94.104213405583,"perigee_km":474.5878447499,"apogee_km":475.73234536477,"semimajor_km":6853.2970950573,"source":"CELESTRAK","updated_at":"2026-05-25T13:38:19.686114Z"}}}